| time (UTC) | temp F | wind direction | speed MPH | gust MPH | rain 1hr in | rain 24hr in | rain mn in | humidity % | barometer mb |
| 20260906201320 | 99 | 231 | 5.0 | 9.0 | 0.00 | 0.00 | 0.00 | 36 | 1012.0 |
| 20260906200819 | 100 | 201 | 6.0 | 12.0 | 0.00 | 0.00 | 0.00 | 36 | 1011.6 |
| 20260906200320 | 101 | 257 | 3.0 | 16.0 | 0.00 | 0.00 | 0.00 | 34 | 1012.0 |
| 20260906200256 | 101 | 223 | 6.0 | 16.0 | 0.00 | 0.00 | 0.00 | 34 | 1011.6 |
| 20260906195818 | 101 | 223 | 6.0 | 16.0 | 0.00 | 0.00 | 0.00 | 34 | 1011.6 |
| 20260906195339 | 101 | 208 | 15.0 | 17.0 | 0.00 | 0.00 | 0.00 | 35 | 1012.3 |
| 20260906195320 | 100 | 262 | 8.0 | 15.0 | 0.00 | 0.00 | 0.00 | 34 | 1012.0 |
| 20260906195308 | 100 | 258 | 10.0 | 12.0 | 0.00 | 0.00 | 0.00 | 37 | 1012.6 |
| 20260906195259 | 100 | 247 | 5.0 | 11.0 | 0.00 | 0.00 | 0.00 | 36 | 1012.6 |
| 20260906195248 | 101 | 203 | 10.0 | 15.0 | 0.00 | 0.00 | 0.00 | 34 | 1012.0 |
| 20260906195235 | 100 | 261 | 7.0 | 14.0 | 0.00 | 0.00 | 0.00 | 34 | 1012.0 |
| 20260906195226 | 100 | 170 | 8.0 | 15.0 | 0.00 | 0.00 | 0.00 | 34 | 1012.3 |
| 20260906195020 | 101 | 240 | 7.0 | 15.0 | 0.00 | 0.00 | 0.00 | 34 | 1012.0 |
| 20260906194014 | 100 | 169 | 2.0 | 11.0 | 0.00 | 0.00 | 0.00 | 36 | 1012.3 |
| 20260906193959 | 100 | 268 | 3.0 | 12.0 | 0.00 | 0.00 | 0.00 | 37 | 1012.3 |
| 20260906193859 | 101 | 320 | 3.0 | 14.0 | 0.00 | 0.00 | 0.00 | 34 | 1012.0 |
| 20260906193441 | 100 | 261 | 7.0 | 14.0 | 0.00 | 0.00 | 0.00 | 34 | 1012.0 |
| 20260906193019 | 100 | 170 | 8.0 | 15.0 | 0.00 | 0.00 | 0.00 | 34 | 1012.3 |
| 20260906192756 | 100 | 258 | 10.0 | 12.0 | 0.00 | 0.00 | 0.00 | 37 | 1012.6 |
| 20260906192421 | 100 | 247 | 5.0 | 11.0 | 0.00 | 0.00 | 0.00 | 36 | 1012.6 |
| 20260906192335 | 101 | 236 | 8.0 | 17.0 | 0.00 | 0.00 | 0.00 | 35 | 1012.3 |
| 20260906191922 | 101 | 208 | 15.0 | 17.0 | 0.00 | 0.00 | 0.00 | 35 | 1012.3 |
| 20260906191715 | 100 | 169 | 2.0 | 11.0 | 0.00 | 0.00 | 0.00 | 36 | 1012.3 |
| 20260906191257 | 100 | 268 | 3.0 | 12.0 | 0.00 | 0.00 | 0.00 | 37 | 1012.3 |
| 20260906185647 | 100 | 221 | 7.0 | 10.0 | 0.00 | 0.00 | 0.00 | 37 | 1012.6 |
| 20260906185520 | 100 | 221 | 7.0 | 10.0 | 0.00 | 0.00 | 0.00 | 37 | 1012.6 |
| 20260906184810 | 100 | 200 | 4.0 | 6.0 | 0.00 | 0.00 | 0.00 | 37 | 1012.6 |
| 20260906184305 | 99 | 356 | 4.0 | 5.0 | 0.00 | 0.00 | 0.00 | 38 | 1012.6 |
| 20260906184140 | 98 | 156 | 2.0 | 8.0 | 0.00 | 0.00 | 0.00 | 40 | 1012.6 |
| 20260906183804 | 98 | 156 | 2.0 | 8.0 | 0.00 | 0.00 | 0.00 | 40 | 1012.6 |
| 20260906183637 | 97 | 170 | 3.0 | 10.0 | 0.00 | 0.00 | 0.00 | 40 | 1013.0 |
| 20260906183303 | 97 | 170 | 3.0 | 10.0 | 0.00 | 0.00 | 0.00 | 40 | 1013.0 |
| 20260906182804 | 97 | 87 | 6.0 | 12.0 | 0.00 | 0.00 | 0.00 | 40 | 1012.6 |
| 20260906182642 | 97 | 82 | 2.0 | 12.0 | 0.00 | 0.00 | 0.00 | 41 | 1013.0 |
| 20260906182514 | 97 | 82 | 2.0 | 12.0 | 0.00 | 0.00 | 0.00 | 41 | 1013.0 |
| 20260906181802 | 96 | 305 | 3.0 | 11.0 | 0.00 | 0.00 | 0.00 | 41 | 1013.4 |
| 20260906181301 | 98 | 241 | 4.0 | 8.0 | 0.00 | 0.00 | 0.00 | 40 | 1013.4 |
| 20260906180759 | 98 | 83 | 5.0 | 9.0 | 0.00 | 0.00 | 0.00 | 40 | 1013.4 |
| 20260906180301 | 98 | 258 | 1.0 | 12.0 | 0.00 | 0.00 | 0.00 | 41 | 1013.4 |
| 20260906175757 | 96 | 53 | 2.0 | 12.0 | 0.00 | 0.00 | 0.00 | 41 | 1013.4 |
| 20260906175710 | 98 | 84 | 8.0 | 8.0 | 0.00 | 0.00 | 0.00 | 40 | 1013.8 |
| 20260906175507 | 98 | 84 | 8.0 | 8.0 | 0.00 | 0.00 | 0.00 | 40 | 1013.8 |
| 20260906174756 | 98 | 169 | 2.0 | 11.0 | 0.00 | 0.00 | 0.00 | 40 | 1013.8 |
| 20260906174732 | 98 | 165 | 3.0 | 13.0 | 0.00 | 0.00 | 0.00 | 39 | 1013.8 |
| 20260906174256 | 98 | 165 | 3.0 | 13.0 | 0.00 | 0.00 | 0.00 | 39 | 1013.8 |
| 20260906173758 | 98 | 209 | 7.0 | 14.0 | 0.00 | 0.00 | 0.00 | 40 | 1013.8 |
| 20260906173736 | 98 | 248 | 9.0 | 11.0 | 0.00 | 0.00 | 0.00 | 40 | 1013.8 |
| 20260906173254 | 98 | 248 | 9.0 | 11.0 | 0.00 | 0.00 | 0.00 | 40 | 1013.8 |
| 20260906172752 | 97 | 177 | 4.0 | 9.0 | 0.00 | 0.00 | 0.00 | 40 | 1014.1 |
| 20260906172252 | 98 | 27 | 2.0 | 9.0 | 0.00 | 0.00 | 0.00 | 40 | 1014.1 |
| 20260906171752 | 97 | 148 | 3.0 | 9.0 | 0.00 | 0.00 | 0.00 | 41 | 1014.4 |
| 20260906171251 | 98 | 133 | 4.0 | 6.0 | 0.00 | 0.00 | 0.00 | 40 | 1014.1 |
| 20260906170750 | 97 | 263 | 2.0 | 11.0 | 0.00 | 0.00 | 0.00 | 42 | 1014.4 |
| 20260906170722 | 96 | 234 | 4.0 | 15.0 | 0.00 | 0.00 | 0.00 | 42 | 1014.4 |
| 20260906170250 | 96 | 234 | 4.0 | 15.0 | 0.00 | 0.00 | 0.00 | 42 | 1014.4 |
| 20260906165748 | 97 | 230 | 4.0 | 15.0 | 0.00 | 0.00 | 0.00 | 41 | 1014.4 |
| 20260906165248 | 97 | 205 | 3.0 | 13.0 | 0.00 | 0.00 | 0.00 | 41 | 1014.4 |
| 20260906164747 | 97 | 216 | 7.0 | 12.0 | 0.00 | 0.00 | 0.00 | 41 | 1014.8 |
| 20260906164659 | 97 | 266 | 5.0 | 11.0 | 0.00 | 0.00 | 0.00 | 42 | 1014.8 |
| 20260906164457 | 97 | 266 | 5.0 | 11.0 | 0.00 | 0.00 | 0.00 | 42 | 1014.8 |
| 20260906163745 | 96 | 226 | 4.0 | 14.0 | 0.00 | 0.00 | 0.00 | 42 | 1014.8 |
| 20260906163243 | 96 | 252 | 5.0 | 14.0 | 0.00 | 0.00 | 0.00 | 43 | 1014.4 |
| 20260906163126 | 97 | 234 | 8.0 | 12.0 | 0.00 | 0.00 | 0.00 | 43 | 1014.8 |
| 20260906162741 | 97 | 234 | 8.0 | 12.0 | 0.00 | 0.00 | 0.00 | 43 | 1014.8 |
| 20260906162618 | 95 | 235 | 2.0 | 12.0 | 0.00 | 0.00 | 0.00 | 44 | 1014.4 |
| 20260906162449 | 95 | 235 | 2.0 | 12.0 | 0.00 | 0.00 | 0.00 | 44 | 1014.4 |
| 20260906161737 | 96 | 243 | 9.0 | 11.0 | 0.00 | 0.00 | 0.00 | 43 | 1014.4 |
| 20260906161236 | 96 | 184 | 2.0 | 10.0 | 0.00 | 0.00 | 0.00 | 44 | 1014.4 |
| 20260906160735 | 95 | 227 | 0.0 | 10.0 | 0.00 | 0.00 | 0.00 | 44 | 1014.8 |
| 20260906160615 | 94 | 221 | 1.0 | 9.0 | 0.00 | 0.00 | 0.00 | 46 | 1014.4 |
| 20260906160448 | 94 | 221 | 1.0 | 9.0 | 0.00 | 0.00 | 0.00 | 46 | 1014.4 |
| 20260906155740 | 95 | 214 | 3.0 | 8.0 | 0.00 | 0.00 | 0.00 | 45 | 1014.4 |
| 20260906155245 | 94 | 285 | 2.0 | 8.0 | 0.00 | 0.00 | 0.00 | 46 | 1014.4 |
| 20260906154740 | 94 | 208 | 4.0 | 6.0 | 0.00 | 0.00 | 0.00 | 46 | 1014.4 |
| 20260906154605 | 93 | 320 | 4.0 | 8.0 | 0.00 | 0.00 | 0.00 | 48 | 1014.4 |
| 20260906154446 | 93 | 320 | 4.0 | 8.0 | 0.00 | 0.00 | 0.00 | 48 | 1014.4 |
| 20260906153735 | 93 | 335 | 5.0 | 8.0 | 0.00 | 0.00 | 0.00 | 49 | 1014.4 |
| 20260906153233 | 92 | 255 | 3.0 | 6.0 | 0.00 | 0.00 | 0.00 | 50 | 1014.4 |
| 20260906152734 | 92 | 265 | 2.0 | 6.0 | 0.00 | 0.00 | 0.00 | 50 | 1014.4 |
| 20260906152233 | 91 | 241 | 5.0 | 6.0 | 0.00 | 0.00 | 0.00 | 51 | 1014.4 |
| 20260906151733 | 91 | 337 | 2.0 | 6.0 | 0.00 | 0.00 | 0.00 | 52 | 1014.4 |
| 20260906151608 | 91 | 319 | 5.0 | 6.0 | 0.00 | 0.00 | 0.00 | 52 | 1014.4 |
| 20260906151233 | 91 | 319 | 5.0 | 6.0 | 0.00 | 0.00 | 0.00 | 52 | 1014.4 |
| 20260906151112 | 90 | 301 | 2.0 | 5.0 | 0.00 | 0.00 | 0.00 | 54 | 1014.4 |
| 20260906150943 | 90 | 301 | 2.0 | 5.0 | 0.00 | 0.00 | 0.00 | 54 | 1014.4 |
| 20260906150459 | 88 | 279 | 2.0 | 6.0 | 0.00 | 0.00 | 0.00 | 56 | 1014.4 |
| 20260906150446 | 89 | 295 | 3.0 | 8.0 | 0.00 | 0.00 | 0.00 | 55 | 1014.4 |
| 20260906150348 | 89 | 273 | 1.0 | 8.0 | 0.00 | 0.00 | 0.00 | 55 | 1014.1 |
| 20260906145925 | 89 | 295 | 3.0 | 8.0 | 0.00 | 0.00 | 0.00 | 55 | 1014.4 |
| 20260906145450 | 88 | 279 | 2.0 | 6.0 | 0.00 | 0.00 | 0.00 | 56 | 1014.4 |
| 20260906144737 | 88 | 275 | 0.0 | 6.0 | 0.00 | 0.00 | 0.00 | 56 | 1014.4 |
| 20260906144235 | 87 | 248 | 4.0 | 6.0 | 0.00 | 0.00 | 0.00 | 57 | 1014.4 |
| 20260906143736 | 87 | 227 | 4.0 | 8.0 | 0.00 | 0.00 | 0.00 | 58 | 1014.4 |
| 20260906143235 | 86 | 294 | 2.0 | 8.0 | 0.00 | 0.00 | 0.00 | 58 | 1014.4 |
| 20260906142735 | 86 | 279 | 2.0 | 9.0 | 0.00 | 0.00 | 0.00 | 58 | 1014.4 |
| 20260906142237 | 86 | 236 | 6.0 | 11.0 | 0.00 | 0.00 | 0.00 | 58 | 1014.4 |
| 20260906141736 | 86 | 254 | 5.0 | 11.0 | 0.00 | 0.00 | 0.00 | 58 | 1014.1 |
| 20260906141236 | 87 | 256 | 7.0 | 10.0 | 0.00 | 0.00 | 0.00 | 57 | 1014.1 |
| 20260906141154 | 87 | 258 | 3.0 | 9.0 | 0.00 | 0.00 | 0.00 | 57 | 1014.4 |
| 20260906140958 | 87 | 258 | 3.0 | 9.0 | 0.00 | 0.00 | 0.00 | 57 | 1014.4 |
| 20260906140526 | 87 | 204 | 6.0 | 9.0 | 0.00 | 0.00 | 0.00 | 58 | 1014.1 |
| 20260906140402 | 87 | 267 | 4.0 | 9.0 | 0.00 | 0.00 | 0.00 | 57 | 1014.4 |
| 20260906135946 | 87 | 204 | 6.0 | 9.0 | 0.00 | 0.00 | 0.00 | 58 | 1014.1 |
| 20260906135235 | 86 | 248 | 4.0 | 12.0 | 0.00 | 0.00 | 0.00 | 59 | 1014.1 |
| 20260906135104 | 85 | 253 | 4.0 | 12.0 | 0.00 | 0.00 | 0.00 | 59 | 1014.1 |
| 20260906134948 | 85 | 253 | 4.0 | 12.0 | 0.00 | 0.00 | 0.00 | 59 | 1014.1 |
| 20260906134236 | 85 | 222 | 4.0 | 11.0 | 0.00 | 0.00 | 0.00 | 60 | 1014.1 |
| 20260906133735 | 84 | 255 | 6.0 | 8.0 | 0.00 | 0.00 | 0.00 | 61 | 1013.8 |
| 20260906133600 | 84 | 238 | 4.0 | 7.0 | 0.00 | 0.00 | 0.00 | 62 | 1013.8 |
| 20260906133235 | 84 | 238 | 4.0 | 7.0 | 0.00 | 0.00 | 0.00 | 62 | 1013.8 |
| 20260906132737 | 83 | 228 | 4.0 | 8.0 | 0.00 | 0.00 | 0.00 | 63 | 1014.1 |
| 20260906132237 | 82 | 251 | 5.0 | 8.0 | 0.00 | 0.00 | 0.00 | 64 | 1013.8 |
| 20260906131737 | 82 | 242 | 4.0 | 5.0 | 0.00 | 0.00 | 0.00 | 66 | 1013.8 |
| 20260906131553 | 81 | 193 | 1.0 | 5.0 | 0.00 | 0.00 | 0.00 | 66 | 1013.8 |
| 20260906131447 | 81 | 193 | 1.0 | 5.0 | 0.00 | 0.00 | 0.00 | 66 | 1013.8 |
| 20260906130735 | 80 | 201 | 3.0 | 5.0 | 0.00 | 0.00 | 0.00 | 67 | 1013.8 |
| 20260906130721 | 80 | 214 | 3.0 | 5.0 | 0.00 | 0.00 | 0.00 | 68 | 1013.8 |
| 20260906130713 | 80 | 229 | 2.0 | 5.0 | 0.00 | 0.00 | 0.00 | 68 | 1013.8 |
| 20260906130330 | 80 | 214 | 3.0 | 5.0 | 0.00 | 0.00 | 0.00 | 68 | 1013.8 |
| 20260906125551 | 79 | 222 | 3.0 | 4.0 | 0.00 | 0.00 | 0.00 | 69 | 1013.8 |
| 20260906125234 | 79 | 222 | 3.0 | 4.0 | 0.00 | 0.00 | 0.00 | 69 | 1013.8 |
| 20260906124738 | 79 | 212 | 3.0 | 4.0 | 0.00 | 0.00 | 0.00 | 70 | 1013.8 |
| 20260906124233 | 78 | 215 | 3.0 | 4.0 | 0.00 | 0.00 | 0.00 | 70 | 1013.4 |
| 20260906123733 | 78 | 206 | 2.0 | 3.0 | 0.00 | 0.00 | 0.00 | 71 | 1013.4 |
| 20260906123232 | 78 | 239 | 1.0 | 3.0 | 0.00 | 0.00 | 0.00 | 71 | 1013.4 |
| 20260906122736 | 78 | 194 | 2.0 | 4.0 | 0.00 | 0.00 | 0.00 | 72 | 1013.4 |
| 20260906122236 | 78 | 210 | 2.0 | 4.0 | 0.00 | 0.00 | 0.00 | 72 | 1013.4 |
| 20260906121736 | 78 | 211 | 2.0 | 5.0 | 0.00 | 0.00 | 0.00 | 71 | 1013.4 |
| 20260906121229 | 78 | 170 | 2.0 | 6.0 | 0.00 | 0.00 | 0.00 | 71 | 1013.0 |
| 20260906120728 | 78 | 210 | 3.0 | 6.0 | 0.00 | 0.00 | 0.00 | 71 | 1013.0 |
| 20260906120227 | 78 | 186 | 5.0 | 6.0 | 0.00 | 0.00 | 0.00 | 71 | 1013.4 |
| 20260906115726 | 78 | 206 | 4.0 | 6.0 | 0.00 | 0.00 | 0.00 | 70 | 1013.0 |
| 20260906115226 | 78 | 208 | 3.0 | 6.0 | 0.00 | 0.00 | 0.00 | 71 | 1012.6 |
| 20260906114724 | 78 | 197 | 3.0 | 5.0 | 0.00 | 0.00 | 0.00 | 70 | 1013.0 |
| 20260906114614 | 78 | 208 | 2.0 | 4.0 | 0.00 | 0.00 | 0.00 | 71 | 1012.6 |
| 20260906114224 | 78 | 208 | 2.0 | 4.0 | 0.00 | 0.00 | 0.00 | 71 | 1012.6 |
| 20260906113723 | 78 | 241 | 2.0 | 4.0 | 0.00 | 0.00 | 0.00 | 70 | 1013.0 |
| 20260906113223 | 78 | 227 | 2.0 | 5.0 | 0.00 | 0.00 | 0.00 | 70 | 1013.0 |
| 20260906112722 | 78 | 219 | 3.0 | 5.0 | 0.00 | 0.00 | 0.00 | 70 | 1012.6 |
| 20260906112221 | 78 | 225 | 2.0 | 6.0 | 0.00 | 0.00 | 0.00 | 69 | 1012.6 |
| 20260906111721 | 78 | 207 | 4.0 | 5.0 | 0.00 | 0.00 | 0.00 | 69 | 1012.6 |
| 20260906111219 | 78 | 211 | 5.0 | 5.0 | 0.00 | 0.00 | 0.00 | 69 | 1012.6 |
| 20260906110718 | 79 | 195 | 3.0 | 6.0 | 0.00 | 0.00 | 0.00 | 68 | 1013.0 |
| 20260906110626 | 79 | 187 | 2.0 | 6.0 | 0.00 | 0.00 | 0.00 | 68 | 1012.6 |
| 20260906110428 | 79 | 187 | 2.0 | 6.0 | 0.00 | 0.00 | 0.00 | 68 | 1012.6 |
| 20260906105715 | 78 | 201 | 6.0 | 6.0 | 0.00 | 0.00 | 0.00 | 68 | 1012.6 |
| 20260906105214 | 78 | 207 | 3.0 | 5.0 | 0.00 | 0.00 | 0.00 | 69 | 1012.6 |
| 20260906104712 | 77 | 208 | 3.0 | 3.0 | 0.00 | 0.00 | 0.00 | 70 | 1012.6 |
| 20260906104212 | 77 | 207 | 2.0 | 3.0 | 0.00 | 0.00 | 0.00 | 71 | 1012.3 |
| 20260906103711 | 77 | 210 | 2.0 | 3.0 | 0.00 | 0.00 | 0.00 | 71 | 1012.6 |
| 20260906103211 | 77 | 208 | 3.0 | 5.0 | 0.00 | 0.00 | 0.00 | 71 | 1012.6 |
| 20260906102710 | 76 | 203 | 3.0 | 5.0 | 0.00 | 0.00 | 0.00 | 72 | 1012.6 |
| 20260906102208 | 74 | 207 | 2.0 | 3.0 | 0.00 | 0.00 | 0.00 | 75 | 1012.3 |
| 20260906101707 | 74 | 200 | 2.0 | 2.0 | 0.00 | 0.00 | 0.00 | 76 | 1012.6 |
| 20260906101207 | 74 | 219 | 0.0 | 1.0 | 0.00 | 0.00 | 0.00 | 76 | 1012.3 |
| 20260906100708 | 74 | 117 | 0.0 | 1.0 | 0.00 | 0.00 | 0.00 | 76 | 1012.6 |
| 20260906100207 | 75 | 129 | 0.0 | 1.0 | 0.00 | 0.00 | 0.00 | 75 | 1012.3 |
| 20260906100026 | 75 | 107 | 0.0 | 1.0 | 0.00 | 0.00 | 0.00 | 74 | 1012.6 |
| 20260906095918 | 75 | 107 | 0.0 | 1.0 | 0.00 | 0.00 | 0.00 | 74 | 1012.6 |
| 20260906095207 | 76 | 135 | 0.0 | 1.0 | 0.00 | 0.00 | 0.00 | 72 | 1012.3 |
| 20260906094708 | 76 | 269 | 0.0 | 2.0 | 0.00 | 0.00 | 0.00 | 71 | 1012.3 |
| 20260906094206 | 76 | 186 | 0.0 | 3.0 | 0.00 | 0.00 | 0.00 | 71 | 1012.3 |
| 20260906093704 | 76 | 283 | 0.0 | 3.0 | 0.00 | 0.00 | 0.00 | 71 | 1012.3 |
| 20260906093205 | 77 | 185 | 1.0 | 2.0 | 0.00 | 0.00 | 0.00 | 70 | 1012.3 |
| 20260906093016 | 77 | 206 | 1.0 | 4.0 | 0.00 | 0.00 | 0.00 | 69 | 1012.3 |
| 20260906092704 | 77 | 206 | 1.0 | 4.0 | 0.00 | 0.00 | 0.00 | 69 | 1012.3 |
| 20260906092203 | 78 | 209 | 1.0 | 4.0 | 0.00 | 0.00 | 0.00 | 68 | 1012.3 |
| 20260906092021 | 78 | 203 | 2.0 | 4.0 | 0.00 | 0.00 | 0.00 | 68 | 1012.3 |
| 20260906091914 | 78 | 203 | 2.0 | 4.0 | 0.00 | 0.00 | 0.00 | 68 | 1012.3 |
| 20260906091201 | 78 | 207 | 2.0 | 4.0 | 0.00 | 0.00 | 0.00 | 68 | 1012.3 |
| 20260906090700 | 78 | 205 | 2.0 | 4.0 | 0.00 | 0.00 | 0.00 | 68 | 1012.3 |
| 20260906090523 | 77 | 198 | 2.0 | 2.0 | 0.00 | 0.00 | 0.00 | 69 | 1012.3 |
| 20260906090411 | 77 | 198 | 2.0 | 2.0 | 0.00 | 0.00 | 0.00 | 69 | 1012.3 |
| 20260906085701 | 78 | 240 | 1.0 | 3.0 | 0.00 | 0.00 | 0.00 | 69 | 1012.3 |
| 20260906085540 | 78 | 209 | 2.0 | 4.0 | 0.00 | 0.00 | 0.00 | 68 | 1012.3 |
| 20260906085158 | 78 | 209 | 2.0 | 4.0 | 0.00 | 0.00 | 0.00 | 68 | 1012.3 |
| 20260906084657 | 78 | 204 | 2.0 | 4.0 | 0.00 | 0.00 | 0.00 | 68 | 1012.3 |
| 20260906084155 | 78 | 208 | 3.0 | 4.0 | 0.00 | 0.00 | 0.00 | 69 | 1012.0 |
| 20260906083655 | 78 | 208 | 2.0 | 3.0 | 0.00 | 0.00 | 0.00 | 68 | 1012.3 |
| 20260906083427 | 78 | 216 | 3.0 | 4.0 | 0.00 | 0.00 | 0.00 | 67 | 1012.3 |
| 20260906083410 | 78 | 223 | 1.0 | 4.0 | 0.00 | 0.00 | 0.00 | 67 | 1012.0 |
| 20260906083300 | 78 | 199 | 2.0 | 3.0 | 0.00 | 0.00 | 0.00 | 67 | 1012.3 |
| 20260906082830 | 78 | 216 | 3.0 | 4.0 | 0.00 | 0.00 | 0.00 | 67 | 1012.3 |
| 20260906081651 | 78 | 199 | 3.0 | 5.0 | 0.00 | 0.00 | 0.00 | 67 | 1012.3 |
| 20260906081156 | 77 | 253 | 2.0 | 5.0 | 0.00 | 0.00 | 0.00 | 68 | 1012.3 |
| 20260906080959 | 76 | 201 | 2.0 | 3.0 | 0.00 | 0.00 | 0.00 | 71 | 1012.3 |
| 20260906080836 | 76 | 189 | 2.0 | 3.0 | 0.00 | 0.00 | 0.00 | 72 | 1012.3 |
| 20260906080154 | 76 | 201 | 2.0 | 3.0 | 0.00 | 0.00 | 0.00 | 71 | 1012.3 |
| 20260906075649 | 76 | 200 | 3.0 | 3.0 | 0.00 | 0.00 | 0.00 | 71 | 1012.0 |
| 20260906075148 | 76 | 202 | 3.0 | 3.0 | 0.00 | 0.00 | 0.00 | 71 | 1012.0 |
| 20260906074647 | 76 | 179 | 1.0 | 2.0 | 0.00 | 0.00 | 0.00 | 71 | 1012.0 |
| 20260906074147 | 76 | 188 | 0.0 | 1.0 | 0.00 | 0.00 | 0.00 | 72 | 1012.0 |
| 20260906073646 | 76 | 210 | 0.0 | 0.0 | 0.00 | 0.00 | 0.00 | 71 | 1012.3 |
| 20260906073142 | 76 | 195 | 0.0 | 1.0 | 0.00 | 0.00 | 0.00 | 70 | 1012.0 |
| 20260906072641 | 76 | 195 | 0.0 | 1.0 | 0.00 | 0.00 | 0.00 | 70 | 1012.0 |
| 20260906072141 | 77 | 169 | 0.0 | 1.0 | 0.00 | 0.00 | 0.00 | 70 | 1012.0 |
| 20260906071640 | 77 | 226 | 1.0 | 2.0 | 0.00 | 0.00 | 0.00 | 69 | 1012.3 |
| 20260906071139 | 77 | 240 | 1.0 | 2.0 | 0.00 | 0.00 | 0.00 | 69 | 1012.3 |
| 20260906070638 | 77 | 200 | 1.0 | 2.0 | 0.00 | 0.00 | 0.00 | 69 | 1012.3 |
| 20260906070138 | 77 | 255 | 0.0 | 2.0 | 0.00 | 0.00 | 0.00 | 69 | 1012.3 |
| 20260906065636 | 77 | 220 | 1.0 | 2.0 | 0.00 | 0.00 | 0.00 | 69 | 1012.3 |
| 20260906065454 | 77 | 195 | 0.0 | 1.0 | 0.00 | 0.00 | 0.00 | 69 | 1012.3 |
| 20260906065136 | 77 | 195 | 0.0 | 1.0 | 0.00 | 0.00 | 0.00 | 69 | 1012.3 |
| 20260906064636 | 77 | 210 | 0.0 | 1.0 | 0.00 | 0.00 | 0.00 | 69 | 1012.0 |
| 20260906064452 | 77 | 218 | 0.0 | 1.0 | 0.00 | 0.00 | 0.00 | 68 | 1012.0 |
| 20260906064350 | 77 | 218 | 0.0 | 1.0 | 0.00 | 0.00 | 0.00 | 68 | 1012.0 |
| 20260906063637 | 78 | 304 | 0.0 | 0.0 | 0.00 | 0.00 | 0.00 | 68 | 1012.3 |
| 20260906063151 | 78 | 205 | 0.0 | 1.0 | 0.00 | 0.00 | 0.00 | 65 | 1012.0 |
| 20260906063139 | 78 | 304 | 0.0 | 1.0 | 0.00 | 0.00 | 0.00 | 67 | 1012.0 |
| 20260906062745 | 78 | 195 | 0.0 | 1.0 | 0.00 | 0.00 | 0.00 | 66 | 1012.0 |
| 20260906062133 | 78 | 205 | 0.0 | 1.0 | 0.00 | 0.00 | 0.00 | 65 | 1012.0 |
| 20260906061633 | 79 | 205 | 0.0 | 2.0 | 0.00 | 0.00 | 0.00 | 65 | 1012.0 |
| 20260906061505 | 79 | 232 | 0.0 | 2.0 | 0.00 | 0.00 | 0.00 | 65 | 1012.3 |
| 20260906061132 | 79 | 232 | 0.0 | 2.0 | 0.00 | 0.00 | 0.00 | 65 | 1012.3 |
| 20260906060954 | 79 | 222 | 1.0 | 2.0 | 0.00 | 0.00 | 0.00 | 64 | 1012.0 |
| 20260906060631 | 79 | 222 | 1.0 | 2.0 | 0.00 | 0.00 | 0.00 | 64 | 1012.0 |
| 20260906060510 | 79 | 230 | 0.0 | 2.0 | 0.00 | 0.00 | 0.00 | 64 | 1012.0 |
| 20260906060341 | 79 | 230 | 0.0 | 2.0 | 0.00 | 0.00 | 0.00 | 64 | 1012.0 |
| 20260906055715 | 80 | 233 | 0.0 | 2.0 | 0.00 | 0.00 | 0.00 | 64 | 1012.0 |
| 20260906055711 | 80 | 232 | 2.0 | 2.0 | 0.00 | 0.00 | 0.00 | 64 | 1012.3 |
| 20260906055649 | 80 | 213 | 2.0 | 2.0 | 0.00 | 0.00 | 0.00 | 64 | 1012.3 |
| 20260906055245 | 80 | 232 | 2.0 | 2.0 | 0.00 | 0.00 | 0.00 | 64 | 1012.3 |
| 20260906054840 | 80 | 233 | 0.0 | 2.0 | 0.00 | 0.00 | 0.00 | 64 | 1012.0 |
| 20260906054128 | 80 | 312 | 1.0 | 2.0 | 0.00 | 0.00 | 0.00 | 63 | 1012.0 |
| 20260906054015 | 80 | 253 | 1.0 | 2.0 | 0.00 | 0.00 | 0.00 | 64 | 1012.0 |
| 20260906053838 | 80 | 253 | 1.0 | 2.0 | 0.00 | 0.00 | 0.00 | 64 | 1012.0 |
| 20260906053126 | 80 | 239 | 1.0 | 2.0 | 0.00 | 0.00 | 0.00 | 64 | 1012.0 |
| 20260906052624 | 80 | 239 | 2.0 | 2.0 | 0.00 | 0.00 | 0.00 | 63 | 1012.0 |
| 20260906052539 | 80 | 256 | 2.0 | 2.0 | 0.00 | 0.00 | 0.00 | 63 | 1012.0 |
| 20260906052125 | 80 | 256 | 2.0 | 2.0 | 0.00 | 0.00 | 0.00 | 63 | 1012.0 |
| 20260906051624 | 80 | 276 | 1.0 | 1.0 | 0.00 | 0.00 | 0.00 | 62 | 1012.3 |
| 20260906051536 | 80 | 220 | 0.0 | 2.0 | 0.00 | 0.00 | 0.00 | 62 | 1012.3 |
| 20260906051122 | 80 | 220 | 0.0 | 2.0 | 0.00 | 0.00 | 0.00 | 62 | 1012.3 |
| 20260906050621 | 81 | 164 | 0.0 | 3.0 | 0.00 | 0.00 | 0.00 | 62 | 1012.0 |
| 20260906050121 | 81 | 127 | 2.0 | 3.0 | 0.00 | 0.00 | 0.00 | 62 | 1012.0 |
| 20260906045620 | 81 | 167 | 2.0 | 2.0 | 0.00 | 0.00 | 0.00 | 62 | 1012.0 |
| 20260906045527 | 82 | 132 | 2.0 | 2.0 | 0.00 | 0.00 | 0.00 | 60 | 1012.0 |
| 20260906045120 | 82 | 132 | 2.0 | 2.0 | 0.00 | 0.00 | 0.00 | 60 | 1012.0 |
| 20260906045033 | 82 | 186 | 0.0 | 1.0 | 0.00 | 0.00 | 0.00 | 59 | 1012.0 |
| 20260906044618 | 82 | 186 | 0.0 | 1.0 | 0.00 | 0.00 | 0.00 | 59 | 1012.0 |
| 20260906044118 | 82 | 224 | 0.0 | 2.0 | 0.00 | 0.00 | 0.00 | 58 | 1012.0 |
| 20260906044028 | 82 | 238 | 0.0 | 2.0 | 0.00 | 0.00 | 0.00 | 58 | 1012.0 |
| 20260906043614 | 82 | 238 | 0.0 | 2.0 | 0.00 | 0.00 | 0.00 | 58 | 1012.0 |
| 20260906043113 | 82 | 206 | 1.0 | 2.0 | 0.00 | 0.00 | 0.00 | 58 | 1012.0 |
| 20260906042613 | 82 | 230 | 0.0 | 2.0 | 0.00 | 0.00 | 0.00 | 58 | 1012.0 |
| 20260906042459 | 83 | 227 | 1.0 | 2.0 | 0.00 | 0.00 | 0.00 | 58 | 1012.0 |
| 20260906042112 | 83 | 227 | 1.0 | 2.0 | 0.00 | 0.00 | 0.00 | 58 | 1012.0 |
| 20260906041612 | 83 | 297 | 0.0 | 2.0 | 0.00 | 0.00 | 0.00 | 57 | 1012.0 |
| 20260906041156 | 84 | 238 | 0.0 | 2.0 | 0.00 | 0.00 | 0.00 | 55 | 1012.0 |
| 20260906041150 | 84 | 246 | 1.0 | 2.0 | 0.00 | 0.00 | 0.00 | 56 | 1012.0 |
| 20260906041123 | 83 | 237 | 1.0 | 2.0 | 0.00 | 0.00 | 0.00 | 57 | 1012.0 |
| 20260906040723 | 84 | 246 | 1.0 | 2.0 | 0.00 | 0.00 | 0.00 | 56 | 1012.0 |
| 20260906040108 | 84 | 238 | 0.0 | 2.0 | 0.00 | 0.00 | 0.00 | 55 | 1012.0 |
| 20260906035753 | 85 | 242 | 1.0 | 3.0 | 0.00 | 0.00 | 0.00 | 54 | 1012.0 |
| 20260906035714 | 85 | 252 | 1.0 | 2.0 | 0.00 | 0.00 | 0.00 | 55 | 1012.0 |
| 20260906034926 | 85 | 269 | 1.0 | 3.0 | 0.00 | 0.00 | 0.00 | 53 | 1012.0 |
| 20260906034607 | 85 | 269 | 1.0 | 3.0 | 0.00 | 0.00 | 0.00 | 53 | 1012.0 |
| 20260906034112 | 85 | 265 | 1.0 | 3.0 | 0.00 | 0.00 | 0.00 | 53 | 1012.0 |
| 20260906033612 | 85 | 214 | 2.0 | 2.0 | 0.00 | 0.00 | 0.00 | 53 | 1012.0 |
| 20260906033111 | 85 | 251 | 2.0 | 2.0 | 0.00 | 0.00 | 0.00 | 53 | 1012.0 |
| 20260906032926 | 86 | 273 | 0.0 | 3.0 | 0.00 | 0.00 | 0.00 | 53 | 1012.0 |
| 20260906032609 | 86 | 273 | 0.0 | 3.0 | 0.00 | 0.00 | 0.00 | 53 | 1012.0 |
| 20260906032111 | 86 | 231 | 1.0 | 3.0 | 0.00 | 0.00 | 0.00 | 52 | 1012.0 |
| 20260906031608 | 86 | 260 | 1.0 | 3.0 | 0.00 | 0.00 | 0.00 | 52 | 1011.6 |
| 20260906031106 | 86 | 241 | 2.0 | 4.0 | 0.00 | 0.00 | 0.00 | 52 | 1012.0 |
| 20260906030604 | 86 | 230 | 3.0 | 4.0 | 0.00 | 0.00 | 0.00 | 52 | 1011.6 |
| 20260906030101 | 86 | 256 | 2.0 | 3.0 | 0.00 | 0.00 | 0.00 | 52 | 1012.0 |
| 20260906025559 | 86 | 236 | 1.0 | 3.0 | 0.00 | 0.00 | 0.00 | 52 | 1012.0 |
| 20260906025311 | 87 | 256 | 1.0 | 3.0 | 0.00 | 0.00 | 0.00 | 51 | 1011.6 |
| 20260906025217 | 86 | 240 | 1.0 | 3.0 | 0.00 | 0.00 | 0.00 | 52 | 1012.0 |
| 20260906024808 | 87 | 256 | 1.0 | 3.0 | 0.00 | 0.00 | 0.00 | 51 | 1011.6 |
| 20260906024309 | 87 | 211 | 3.0 | 4.0 | 0.00 | 0.00 | 0.00 | 50 | 1011.6 |
| 20260906024204 | 87 | 252 | 1.0 | 2.0 | 0.00 | 0.00 | 0.00 | 51 | 1011.6 |
| 20260906023740 | 87 | 217 | 0.0 | 3.0 | 0.00 | 0.00 | 0.00 | 51 | 1011.6 |
| 20260906023307 | 87 | 211 | 3.0 | 4.0 | 0.00 | 0.00 | 0.00 | 50 | 1011.6 |
| 20260906022554 | 87 | 242 | 1.0 | 3.0 | 0.00 | 0.00 | 0.00 | 50 | 1011.6 |
| 20260906022054 | 87 | 256 | 2.0 | 2.0 | 0.00 | 0.00 | 0.00 | 51 | 1011.3 |
| 20260906021915 | 87 | 251 | 2.0 | 2.0 | 0.00 | 0.00 | 0.00 | 52 | 1011.3 |
| 20260906021740 | 87 | 253 | 2.0 | 2.0 | 0.00 | 0.00 | 0.00 | 52 | 1011.3 |
| 20260906021054 | 87 | 251 | 2.0 | 2.0 | 0.00 | 0.00 | 0.00 | 52 | 1011.3 |
| 20260906020553 | 87 | 278 | 0.0 | 2.0 | 0.00 | 0.00 | 0.00 | 51 | 1011.3 |
| 20260906020206 | 88 | 242 | 1.0 | 2.0 | 0.00 | 0.00 | 0.00 | 49 | 1011.3 |
| 20260906020126 | 87 | 269 | 0.0 | 2.0 | 0.00 | 0.00 | 0.00 | 51 | 1011.3 |
| 20260906015706 | 88 | 232 | 0.0 | 2.0 | 0.00 | 0.00 | 0.00 | 50 | 1011.3 |
| 20260906015252 | 88 | 242 | 1.0 | 2.0 | 0.00 | 0.00 | 0.00 | 49 | 1011.3 |
| 20260906014920 | 89 | 261 | 1.0 | 2.0 | 0.00 | 0.00 | 0.00 | 48 | 1011.3 |
| 20260906014751 | 89 | 261 | 1.0 | 2.0 | 0.00 | 0.00 | 0.00 | 48 | 1011.3 |
| 20260906014035 | 89 | 259 | 1.0 | 2.0 | 0.00 | 0.00 | 0.00 | 48 | 1011.0 |
| 20260906013852 | 90 | 245 | 0.0 | 2.0 | 0.00 | 0.00 | 0.00 | 47 | 1011.0 |
| 20260906013535 | 89 | 241 | 1.0 | 2.0 | 0.00 | 0.00 | 0.00 | 48 | 1011.0 |
| 20260906013136 | 89 | 215 | 0.0 | 2.0 | 0.00 | 0.00 | 0.00 | 47 | 1011.0 |
| 20260906012747 | 90 | 245 | 0.0 | 2.0 | 0.00 | 0.00 | 0.00 | 47 | 1011.0 |
| 20260906012035 | 90 | 248 | 1.0 | 2.0 | 0.00 | 0.00 | 0.00 | 47 | 1011.0 |
| 20260906011537 | 90 | 223 | 1.0 | 3.0 | 0.00 | 0.00 | 0.00 | 46 | 1010.6 |
| 20260906011034 | 91 | 210 | 2.0 | 3.0 | 0.00 | 0.00 | 0.00 | 45 | 1011.0 |
| 20260906010534 | 92 | 211 | 2.0 | 3.0 | 0.00 | 0.00 | 0.00 | 44 | 1010.6 |
| 20260906010033 | 92 | 223 | 2.0 | 3.0 | 0.00 | 0.00 | 0.00 | 44 | 1010.6 |
| 20260906005854 | 93 | 206 | 1.0 | 3.0 | 0.00 | 0.00 | 0.00 | 43 | 1010.6 |
| 20260906005743 | 93 | 206 | 1.0 | 3.0 | 0.00 | 0.00 | 0.00 | 43 | 1010.6 |
| 20260906005032 | 93 | 227 | 1.0 | 2.0 | 0.00 | 0.00 | 0.00 | 42 | 1011.0 |
| 20260906004529 | 94 | 217 | 1.0 | 2.0 | 0.00 | 0.00 | 0.00 | 42 | 1011.0 |
| 20260906004029 | 94 | 210 | 0.0 | 3.0 | 0.00 | 0.00 | 0.00 | 41 | 1011.0 |
| 20260906003530 | 95 | 205 | 0.0 | 3.0 | 0.00 | 0.00 | 0.00 | 40 | 1010.6 |
| 20260906003431 | 96 | 221 | 3.0 | 3.0 | 0.00 | 0.00 | 0.00 | 40 | 1010.2 |
| 20260906003237 | 96 | 221 | 3.0 | 3.0 | 0.00 | 0.00 | 0.00 | 40 | 1010.2 |
| 20260906002527 | 96 | 202 | 3.0 | 4.0 | 0.00 | 0.00 | 0.00 | 39 | 1010.2 |
| 20260906002026 | 96 | 229 | 0.0 | 5.0 | 0.00 | 0.00 | 0.00 | 39 | 1010.6 |
| 20260906001524 | 96 | 124 | 0.0 | 5.0 | 0.00 | 0.00 | 0.00 | 38 | 1011.0 |
| 20260906001023 | 96 | 171 | 0.0 | 5.0 | 0.00 | 0.00 | 0.00 | 38 | 1010.6 |
| 20260906000611 | 97 | 155 | 2.0 | 6.0 | 0.00 | 0.00 | 0.00 | 39 | 1010.2 |
| 20260906000542 | 96 | 218 | 0.0 | 5.0 | 0.00 | 0.00 | 0.00 | 38 | 1010.2 |
| 20260906000129 | 96 | 108 | 2.0 | 6.0 | 0.00 | 0.00 | 0.00 | 39 | 1010.2 |
| 20260906000124 | 96 | 174 | 2.0 | 5.0 | 0.00 | 0.00 | 0.00 | 38 | 1010.2 |
| 20260906000112 | 96 | 104 | 2.0 | 6.0 | 0.00 | 0.00 | 0.00 | 39 | 1010.2 |
| 20260906000058 | 96 | 204 | 2.0 | 6.0 | 0.00 | 0.00 | 0.00 | 39 | 1010.2 |
| 20260906000028 | 96 | 169 | 5.0 | 6.0 | 0.00 | 0.00 | 0.00 | 38 | 1010.6 |
| 20260905235602 | 96 | 108 | 2.0 | 6.0 | 0.00 | 0.00 | 0.00 | 39 | 1010.2 |
| 20260905235133 | 96 | 174 | 2.0 | 5.0 | 0.00 | 0.00 | 0.00 | 38 | 1010.2 |
| 20260905234835 | 97 | 155 | 2.0 | 6.0 | 0.00 | 0.00 | 0.00 | 39 | 1010.2 |
| 20260905234655 | 96 | 155 | 1.0 | 5.0 | 0.00 | 0.00 | 0.00 | 39 | 1010.2 |
| 20260905234238 | 96 | 104 | 2.0 | 6.0 | 0.00 | 0.00 | 0.00 | 39 | 1010.2 |
| 20260905232918 | 98 | 181 | 5.0 | 11.0 | 0.00 | 0.00 | 0.00 | 36 | 1009.8 |
| 20260905232914 | 97 | 199 | 5.0 | 8.0 | 0.00 | 0.00 | 0.00 | 38 | 1009.8 |
| 20260905232900 | 98 | 153 | 3.0 | 11.0 | 0.00 | 0.00 | 0.00 | 37 | 1009.8 |
| 20260905232524 | 97 | 199 | 5.0 | 8.0 | 0.00 | 0.00 | 0.00 | 38 | 1009.8 |
| 20260905232119 | 98 | 153 | 3.0 | 11.0 | 0.00 | 0.00 | 0.00 | 37 | 1009.8 |
| 20260905231508 | 98 | 181 | 5.0 | 11.0 | 0.00 | 0.00 | 0.00 | 36 | 1009.8 |
| 20260905231346 | 99 | 192 | 6.0 | 13.0 | 0.00 | 0.00 | 0.00 | 36 | 1009.8 |
| 20260905231010 | 99 | 192 | 6.0 | 13.0 | 0.00 | 0.00 | 0.00 | 36 | 1009.8 |
| 20260905230512 | 99 | 147 | 4.0 | 13.0 | 0.00 | 0.00 | 0.00 | 35 | 1009.8 |
| 20260905230010 | 100 | 168 | 5.0 | 9.0 | 0.00 | 0.00 | 0.00 | 35 | 1009.8 |
| 20260905225509 | 100 | 161 | 3.0 | 9.0 | 0.00 | 0.00 | 0.00 | 35 | 1009.8 |
| 20260905225009 | 100 | 137 | 2.0 | 9.0 | 0.00 | 0.00 | 0.00 | 36 | 1009.8 |
| 20260905224841 | 99 | 143 | 2.0 | 9.0 | 0.00 | 0.00 | 0.00 | 36 | 1009.8 |
| 20260905224507 | 99 | 143 | 2.0 | 9.0 | 0.00 | 0.00 | 0.00 | 36 | 1009.8 |
| 20260905224005 | 99 | 131 | 1.0 | 9.0 | 0.00 | 0.00 | 0.00 | 36 | 1009.8 |
| 20260905223505 | 100 | 168 | 4.0 | 9.0 | 0.00 | 0.00 | 0.00 | 35 | 1009.8 |
| 20260905223008 | 100 | 180 | 6.0 | 13.0 | 0.00 | 0.00 | 0.00 | 35 | 1009.8 |
| 20260905222927 | 99 | 222 | 4.0 | 13.0 | 0.00 | 0.00 | 0.00 | 35 | 1009.8 |
| 20260905222721 | 99 | 222 | 4.0 | 13.0 | 0.00 | 0.00 | 0.00 | 35 | 1009.8 |
| 20260905222008 | 99 | 160 | 6.0 | 13.0 | 0.00 | 0.00 | 0.00 | 35 | 1009.8 |
| 20260905221508 | 99 | 178 | 2.0 | 11.0 | 0.00 | 0.00 | 0.00 | 35 | 1009.8 |
| 20260905221009 | 99 | 57 | 3.0 | 11.0 | 0.00 | 0.00 | 0.00 | 35 | 1009.8 |
| 20260905220834 | 101 | 114 | 4.0 | 12.0 | 0.00 | 0.00 | 0.00 | 35 | 1010.2 |
| 20260905220642 | 99 | 63 | 1.0 | 12.0 | 0.00 | 0.00 | 0.00 | 36 | 1009.8 |
| 20260905215923 | 100 | 224 | 2.0 | 11.0 | 0.00 | 0.00 | 0.00 | 35 | 1010.2 |
| 20260905215721 | 100 | 224 | 2.0 | 11.0 | 0.00 | 0.00 | 0.00 | 35 | 1010.2 |
| 20260905215009 | 99 | 297 | 0.0 | 10.0 | 0.00 | 0.00 | 0.00 | 36 | 1010.2 |
| 20260905214508 | 98 | 178 | 3.0 | 10.0 | 0.00 | 0.00 | 0.00 | 37 | 1009.8 |
| 20260905214007 | 99 | 174 | 7.0 | 9.0 | 0.00 | 0.00 | 0.00 | 37 | 1010.6 |
| 20260905213916 | 99 | 223 | 2.0 | 15.0 | 0.00 | 0.00 | 0.00 | 36 | 1010.6 |
| 20260905213858 | 99 | 49 | 2.0 | 15.0 | 0.00 | 0.00 | 0.00 | 37 | 1010.6 |
| 20260905213726 | 100 | 165 | 1.0 | 9.0 | 0.00 | 0.00 | 0.00 | 36 | 1010.6 |
| 20260905212008 | 100 | 153 | 7.0 | 15.0 | 0.00 | 0.00 | 0.00 | 36 | 1010.6 |
| 20260905211507 | 99 | 182 | 2.0 | 15.0 | 0.00 | 0.00 | 0.00 | 36 | 1011.0 |
| 20260905211155 | 100 | 231 | 10.0 | 11.0 | 0.00 | 0.00 | 0.00 | 36 | 1010.6 |
| 20260905211111 | 101 | 217 | 9.0 | 11.0 | 0.00 | 0.00 | 0.00 | 35 | 1010.6 |
| 20260905210506 | 100 | 231 | 10.0 | 11.0 | 0.00 | 0.00 | 0.00 | 36 | 1010.6 |
| 20260905210006 | 101 | 238 | 3.0 | 13.0 | 0.00 | 0.00 | 0.00 | 34 | 1011.0 |
| 20260905205505 | 100 | 335 | 2.0 | 13.0 | 0.00 | 0.00 | 0.00 | 35 | 1011.0 |
| 20260905205003 | 100 | 208 | 7.0 | 14.0 | 0.00 | 0.00 | 0.00 | 35 | 1011.0 |
| 20260905204504 | 99 | 89 | 3.0 | 14.0 | 0.00 | 0.00 | 0.00 | 36 | 1011.0 |
| 20260905204002 | 99 | 229 | 6.0 | 19.0 | 0.00 | 0.00 | 0.00 | 36 | 1011.3 |
| 20260905203500 | 99 | 175 | 7.0 | 19.0 | 0.00 | 0.00 | 0.00 | 36 | 1011.3 |
| 20260905202958 | 99 | 201 | 4.0 | 16.0 | 0.00 | 0.00 | 0.00 | 36 | 1011.3 |
| 20260905202835 | 99 | 180 | 6.0 | 13.0 | 0.00 | 0.00 | 0.00 | 36 | 1011.6 |
| 20260905202650 | 98 | 199 | 8.0 | 16.0 | 0.00 | 0.00 | 0.00 | 36 | 1011.3 |
| 20260905201454 | 98 | 71 | 4.0 | 13.0 | 0.00 | 0.00 | 0.00 | 38 | 1011.6 |